Regional Weather Roundup
Issued by NWS Nashville, TN

Home | Current Version | Previous Version | Text Only | Print | Product List | Glossary On
Versions: 1 2 3 4 5 6 7 8 9 10 11 12 13 14 15 16 17 18 19 20 21 22 23 24 25 26 27 28 29 30 31 32 33 34 35 36 37 38 39 40 41 42 43 44 45 46 47 48 49 50
000
ASUS44 KOHX 241510
RWROHX
MIDDLE TENNESSEE HOURLY WEATHER ROUNDUP
NATIONAL WEATHER SERVICE NASHVILLE TN
900 AM CST TUE JAN 24 2017

NOTE: "FAIR" INDICATES FEW OR NO CLOUDS BELOW 12,000 FEET WITH
NO SIGNIFICANT WEATHER AND/OR OBSTRUCTIONS TO VISIBILITY.

* THESE REPORTS ARE NOT UNDER NWS QUALITY CONTROL AND MAY NOT
  REPORT WEATHER SUCH AS PRECIPITATION AND FOG.


TNZ005>011-023>034-057-059-062>066-078-080-241600
...NORTHERN MIDDLE TENNESSEE...

CITY           SKY/WX    TMP DP  RH WIND       PRES   REMARKS
CLARKSVILLE    CLOUDY    41  32  70 NE5       29.95R
CROSSVILLE     CLOUDY    36  34  92 VRB5      29.91R FOG     WCI  32
GALLATIN       CLOUDY    43  34  70 VRB5      29.98R
DICKSON        CLOUDY    40  34  79 E7        29.92S
LEBANON        CLOUDY    40  33  76 N3        29.93R
NASHVILLE      CLOUDY    43  33  68 N6        29.96R
PORTLAND       CLOUDY    41  34  75 W6        29.94R
SMYRNA         CLOUDY    42  34  73 NW6       29.96S
SPRINGFIELD    CLOUDY    41  34  75 N5        29.94S
WEST NASHVILLE CLOUDY    39  32  75 CALM      29.95S
$$
TNZ056-058-060-061-075>077-079-093>097-241600
...SOUTHERN MIDDLE TENNESSEE...

CITY           SKY/WX    TMP DP  RH WIND       PRES   REMARKS
COLUMBIA       PTSUNNY   43  41  93 NE6       29.92S
MCMINNVILLE    CLOUDY    39  36  87 N7          N/A  WCI  34
MURFREESBORO   CLOUDY    41  34  76 N7        29.95R
SHELBYVILLE    CLOUDY    43  36  75 VRB7      29.95R
TULLAHOMA      CLOUDY    39  34  81 N5        29.93S
WINCHESTER     CLOUDY    39  34  81 N3        29.94R
$$


...KEY TO REMARKS...
VSB - VISIBILITY IN MILES
WCI - WIND CHILL INDEX
HX  - HEAT INDEX




USA.gov is the U.S. government's official web portal to all federal, state and local government web resources and services.